[TLELIST] Archives

 

Current TLEs

June 18th 2008 PST

HST 1 20580U 90037B 08169.74285135 .00000323 00000-0 12185-4 0 1590 2 20580 028.4689 319.6065 0003396 031.4739 328.6053 15.00386802795069 ISS (ZARYA) 1 25544U 98067A 08169.66879708 .00015177 00000-0 95227-4 0 6857 2 25544 051.6420 013.8949 0005607 344.5410 060.1505 15.76999695548609 CXO 1 25867U 99040B 08170.20833333 +.00000253 +00000-0 +10000-3 0 02112 2 25867 063.7732 080.4580 6840292 278.8550 357.2352 00.37805332003639 ____________________________________________________________________ These 2-Line ...Continue Reading

Current TLEs

June 17th 2008 PST

HST 1 20580U 90037B 08168.54551327 .00000283 00000-0 90286-5 0 1589 2 20580 028.4689 327.4157 0003399 016.5898 343.4798 15.00386186794886 ISS (ZARYA) 1 25544U 98067A 08169.17208569 .00014173 00000-0 89283-4 0 6821 2 25544 051.6424 016.4569 0005791 345.4292 117.4184 15.76978834548524 CXO 1 25867U 99040B 08167.58333333 +.00000232 +00000-0 +10000-3 0 02100 2 25867 063.7639 080.5154 6833603 278.8881 359.8642 00.37805185003623 ____________________________________________________________________ These 2-Line ...Continue Reading

Current TLEs

June 16th 2008 PST

HST 1 20580U 90037B 08166.88254282 +.00000279 +00000-0 +87195-5 0 01584 2 20580 028.4689 338.2597 0003423 358.6144 001.4437 15.00385755794631 ISS (ZARYA) 1 25544U 98067A 08167.84235066 .00010611 00000-0 68035-4 0 6741 2 25544 051.6416 023.3165 0005713 335.8465 132.8960 15.76927027548311 CXO 1 25867U 99040B 08167.58333333 +.00000232 +00000-0 +10000-3 0 02100 2 25867 063.7639 080.5154 6833603 278.8881 359.8642 00.37805185003623 ____________________________________________________________________ These 2-Line ...Continue Reading

Current TLEs

June 15th 2008 PST

HST 1 20580U 90037B 08166.81602402 .00000274 00000-0 83796-5 0 1575 2 20580 028.4689 338.6935 0003421 357.8879 002.1697 15.00385711794622 ISS (ZARYA) 1 25544U 98067A 08167.14191554 .00009970 00000-0 64227-4 0 6696 2 25544 051.6419 026.9297 0005688 333.9347 115.8057 15.76908717548209 CXO 1 25867U 99040B 08164.91666667 +.00000265 +00000-0 +10000-3 0 02097 2 25867 063.7513 080.5602 6827273 278.9382 356.7929 00.37805193003617 ____________________________________________________________________ These 2-Line ...Continue Reading

Current TLEs

June 14th 2008 PST

HST 1 20580U 90037B 08165.55216630 .00000253 00000-0 67136-5 0 1565 2 20580 028.4690 346.9359 0003452 343.7475 016.3007 15.00385298794437 ISS (ZARYA) 1 25544U 98067A 08166.19278128 .00010060 00000-0 64820-4 0 6649 2 25544 051.6412 031.8249 0005713 329.8004 128.2206 15.76888928548055 CXO 1 25867U 99040B 08164.91666667 +.00000265 +00000-0 +10000-3 0 02097 2 25867 063.7513 080.5602 6827273 278.9382 356.7929 00.37805193003617 ____________________________________________________________________ These 2-Line ...Continue Reading

Current TLEs

June 13th 2008 PST

HST 1 20580U 90037B 08163.88919472 +.00000243 +00000-0 +59602-5 0 01561 2 20580 028.4691 357.7789 0003451 326.0892 033.9476 15.00384978794182 ISS (ZARYA) 1 25544U 98067A 08163.84755287 +.00000206 +00000-0 +53030-5 0 06489 2 25544 051.6402 043.9198 0005684 321.9601 133.8438 15.76737382547688 CXO 1 25867U 99040B 08164.91666667 +.00000265 +00000-0 +10000-3 0 02097 2 25867 063.7513 080.5602 6827273 278.9382 356.7929 00.37805193003617 ____________________________________________________________________ These 2-Line ...Continue Reading

Current TLEs

June 12th 2008 PST

HST 1 20580U 90037B 08163.88919474 .00000240 00000-0 57059-5 0 1553 2 20580 028.4691 357.7789 0003451 326.0838 033.9530 15.00384954794187 ISS (ZARYA) 1 25544U 98067A 08164.22826546 .00053995 00000-0 32874-3 0 6528 2 25544 051.6441 041.9589 0005719 319.5149 138.9733 15.76881972547748 CXO 1 25867U 99040B 08162.25000000 +.00000307 +00000-0 +10000-3 0 02081 2 25867 063.7377 080.6146 6822819 278.9859 353.6967 00.37805746003600 ____________________________________________________________________ These 2-Line ...Continue Reading

Current TLEs

June 11th 2008 PST

HST 1 20580U 90037B 08161.96014833 +.00000261 +00000-0 +73009-5 0 01573 2 20580 028.4686 010.3606 0003517 305.8321 054.1940 15.00384671793899 ISS (ZARYA) 1 25544U 98067A 08162.26318523 -.00000157 00000-0 30927-5 0 6387 2 25544 051.6408 052.0866 0005617 323.7185 132.7478 15.76735819547438 CXO 1 25867U 99040B 08162.25000000 +.00000307 +00000-0 +10000-3 0 02081 2 25867 063.7377 080.6146 6822819 278.9859 353.6967 00.37805746003600 ____________________________________________________________________ These 2-Line ...Continue Reading

Current TLEs

June 10th 2008 PST

HST 1 20580U 90037B 08161.89362961 .00000255 00000-0 68281-5 0 1549 2 20580 028.4686 010.7946 0003524 305.1106 054.9154 15.00384611793880 ISS (ZARYA) 1 25544U 98067A 08162.26318523 -.00000157 00000-0 30927-5 0 6387 2 25544 051.6408 052.0866 0005617 323.7185 132.7478 15.76735819547438 CXO 1 25867U 99040B 08162.25000000 +.00000307 +00000-0 +10000-3 0 02081 2 25867 063.7377 080.6146 6822819 278.9859 353.6967 00.37805746003600 ____________________________________________________________________ These 2-Line ...Continue Reading

Current TLEs

June 9th 2008 PST

HST 1 20580U 90037B 08159.96458285 +.00000306 +00000-0 +10832-4 0 01780 2 20580 028.4683 023.3738 0003528 284.4510 075.5687 15.00384501793594 ISS (ZARYA) 1 25544U 98067A 08161.31384457 -.00000637 00000-0 17175-6 0 6329 2 25544 051.6415 056.9865 0005549 313.7543 150.3582 15.76744885547287 CXO 1 25867U 99040B 08159.62500000 +.00000295 +00000-0 +10000-3 0 02078 2 25867 063.7321 080.7062 6817343 279.0152 356.2901 00.37803594003595 ____________________________________________________________________ These 2-Line ...Continue Reading
  • This mailing list is a public mailing list - anyone may join or leave, at any time.
  • This mailing list is announce-only.

International Space Station (ISS) / Hubble Space Telescope (HST) / Chandra X-Ray Observatory Orbital Data via EMAIL

Privacy Policy:

Private list